Location: Noordwijk
(52.2400°N, 4.4500°E)
Time: 21:07:54
(UTC+00:00)

AO-7 - Pass Details

Date: 15 December 2022
Orbit: 1440 x 1459 km, 101.9° (Epoch: 31 January)

Event Time Altitude Azimuth Distance (km) Brightness Sun altitude
Rises 04:11:45 0° 21° (NNE) 4,550 ? -31.1°
Reaches altitude 10° 04:14:37 10° 25° (NNE) 3,570 ? -30.7°
Maximum altitude 04:22:48 56° 103° (ESE) 1,681 ? -29.4°
Drops below altitude 10° 04:30:55 10° 181° (S) 3,563 ? -28.2°
Sets 04:33:47 0° 185° (S) 4,540 ? -27.8°
